EN

Hourly Weather Bristol

Today, 19 June, Saturday

Time Temperature Precipitation Wind Pressure Humidity
00:00 +12°C° 0 mm 2 mps 760 mmHg 95%
01:00 +12°C° 0 mm 1 mps 760 mmHg 96%
02:00 +12°C° 0 mm 1 mps 760 mmHg 96%
03:00 +11°C° 0 mm 1 mps 760 mmHg 96%
04:00 +12°C° 0 mm 1 mps 760 mmHg 95%
05:00 +12°C° 0 mm 1 mps 760 mmHg 94%
06:00 +12°C° 0 mm 1 mps 760 mmHg 93%
07:00 +13°C° 0 mm 2 mps 760 mmHg 90%
08:00 +14°C° 0 mm 2 mps 760 mmHg 87%
09:00 +15°C° 0 mm 2 mps 760 mmHg 83%
10:00 +15°C° 0 mm 2 mps 760 mmHg 83%
11:00 +16°C° 0 mm 2 mps 759 mmHg 82%
12:00 +16°C° 0 mm 2 mps 759 mmHg 82%
13:00 +16°C° 0 mm 2 mps 759 mmHg 82%
14:00 +16°C° 0 mm 3 mps 758 mmHg 82%
15:00 +17°C° 0 mm 3 mps 758 mmHg 83%
16:00 +17°C° 0 mm 3 mps 757 mmHg 81%
17:00 +18°C° 0 mm 3 mps 756 mmHg 80%
18:00 +18°C° 0 mm 3 mps 756 mmHg 78%
19:00 +17°C° 0.1 mm 3 mps 756 mmHg 83%
20:00 +16°C° 0.1 mm 3 mps 755 mmHg 87%
21:00 +14°C° 0.1 mm 3 mps 755 mmHg 92%
22:00 +14°C° 0.2 mm 3 mps 755 mmHg 94%
23:00 +14°C° 0.2 mm 3 mps 754 mmHg 95%

Tomorrow, 20 June, Sunday

Time Temperature Precipitation Wind Pressure Humidity
00:00 +13°C° 0.2 mm 3 mps 754 mmHg 97%
01:00 +13°C° 1.2 mm 3 mps 754 mmHg 97%
02:00 +13°C° 1.2 mm 3 mps 753 mmHg 98%
03:00 +13°C° 1.2 mm 3 mps 753 mmHg 98%
04:00 +13°C° 0.4 mm 3 mps 753 mmHg 98%
05:00 +13°C° 0.4 mm 3 mps 753 mmHg 98%
06:00 +13°C° 0.4 mm 3 mps 753 mmHg 98%
07:00 +14°C° 0.2 mm 3 mps 753 mmHg 97%
08:00 +14°C° 0.2 mm 3 mps 753 mmHg 96%
09:00 +14°C° 0.2 mm 3 mps 753 mmHg 96%
10:00 +16°C° 0.3 mm 3 mps 753 mmHg 92%
11:00 +17°C° 0.3 mm 2 mps 753 mmHg 88%
12:00 +18°C° 0.3 mm 2 mps 753 mmHg 84%
13:00 +18°C° 0.4 mm 3 mps 753 mmHg 81%
14:00 +19°C° 0.4 mm 3 mps 753 mmHg 79%
15:00 +19°C° 0.4 mm 3 mps 753 mmHg 76%
16:00 +18°C° 0.1 mm 3 mps 753 mmHg 78%
17:00 +18°C° 0.1 mm 3 mps 754 mmHg 80%
18:00 +18°C° 0.1 mm 3 mps 754 mmHg 82%
19:00 +17°C° 0.1 mm 3 mps 754 mmHg 86%
20:00 +15°C° 0.1 mm 4 mps 754 mmHg 90%
21:00 +14°C° 0.1 mm 5 mps 755 mmHg 94%
22:00 +13°C° 0.1 mm 5 mps 755 mmHg 94%
23:00 +13°C° 0.1 mm 5 mps 755 mmHg 95%

Day after tomorrow, 21 June, Monday

Time Temperature Precipitation Wind Pressure Humidity
00:00 +12°C° 0.1 mm 5 mps 754 mmHg 96%
01:00 +12°C° 0.2 mm 5 mps 754 mmHg 96%
02:00 +12°C° 0.2 mm 5 mps 754 mmHg 96%
03:00 +12°C° 0.2 mm 5 mps 754 mmHg 96%
04:00 +11°C° 2.1 mm 6 mps 754 mmHg 97%
05:00 +10°C° 2.1 mm 6 mps 755 mmHg 97%
06:00 +10°C° 2.1 mm 6 mps 755 mmHg 97%
07:00 +10°C° 1.5 mm 7 mps 755 mmHg 97%
08:00 +10°C° 1.5 mm 7 mps 755 mmHg 96%
09:00 +10°C° 1.5 mm 8 mps 755 mmHg 96%
10:00 +10°C° 1.6 mm 8 mps 756 mmHg 96%
11:00 +10°C° 1.6 mm 8 mps 756 mmHg 96%
12:00 +10°C° 1.6 mm 8 mps 756 mmHg 96%
13:00 +10°C° 1.1 mm 8 mps 756 mmHg 96%
14:00 +10°C° 1.1 mm 8 mps 756 mmHg 95%
15:00 +10°C° 1.1 mm 8 mps 757 mmHg 95%
16:00 +10°C° 1.1 mm 8 mps 757 mmHg 95%
17:00 +10°C° 1.1 mm 8 mps 757 mmHg 95%
18:00 +10°C° 1.1 mm 8 mps 757 mmHg 95%
19:00 +10°C° 0.3 mm 8 mps 758 mmHg 95%
20:00 +10°C° 0.3 mm 8 mps 758 mmHg 95%
21:00 +10°C° 0.3 mm 8 mps 759 mmHg 95%
22:00 +10°C° 0.2 mm 8 mps 759 mmHg 95%
23:00 +10°C° 0.2 mm 8 mps 759 mmHg 95%

22 June, Tuesday

Time Temperature Precipitation Wind Pressure Humidity
00:00 +10°C° 0.2 mm 8 mps 760 mmHg 95%
01:00 +10°C° 0.1 mm 8 mps 760 mmHg 95%
02:00 +10°C° 0.1 mm 8 mps 760 mmHg 95%
03:00 +10°C° 0.1 mm 8 mps 760 mmHg 95%
04:00 +10°C° 0.1 mm 8 mps 760 mmHg 94%
05:00 +10°C° 0.1 mm 8 mps 761 mmHg 94%
06:00 +10°C° 0.1 mm 8 mps 761 mmHg 93%
07:00 +10°C° 0.1 mm 8 mps 761 mmHg 93%
08:00 +10°C° 0.1 mm 8 mps 762 mmHg 92%
09:00 +10°C° 0.1 mm 8 mps 762 mmHg 91%
10:00 +11°C° 0 mm 8 mps 762 mmHg 88%
11:00 +11°C° 0 mm 8 mps 763 mmHg 85%
12:00 +11°C° 0 mm 8 mps 763 mmHg 82%
13:00 +11°C° 0 mm 7 mps 763 mmHg 81%
14:00 +12°C° 0 mm 7 mps 763 mmHg 80%
15:00 +13°C° 0 mm 6 mps 763 mmHg 79%
16:00 +13°C° 0 mm 6 mps 763 mmHg 80%
17:00 +12°C° 0 mm 5 mps 764 mmHg 82%
18:00 +12°C° 0 mm 5 mps 764 mmHg 84%
19:00 +12°C° 0 mm 4 mps 764 mmHg 85%
20:00 +12°C° 0 mm 4 mps 764 mmHg 85%
21:00 +11°C° 0 mm 4 mps 765 mmHg 86%
22:00 +11°C° 0 mm 4 mps 765 mmHg 85%
23:00 +11°C° 0 mm 4 mps 765 mmHg 85%

23 June, Wednesday

Time Temperature Precipitation Wind Pressure Humidity
00:00 +11°C° 0 mm 4 mps 765 mmHg 84%
01:00 +11°C° 0 mm 4 mps 765 mmHg 82%
02:00 +10°C° 0 mm 4 mps 765 mmHg 81%
03:00 +10°C° 0 mm 4 mps 765 mmHg 79%
04:00 +10°C° 0 mm 4 mps 765 mmHg 80%
05:00 +10°C° 0 mm 4 mps 765 mmHg 80%
06:00 +10°C° 0 mm 4 mps 765 mmHg 81%
07:00 +10°C° 0 mm 4 mps 765 mmHg 79%
08:00 +10°C° 0 mm 5 mps 766 mmHg 77%
09:00 +12°C° 0 mm 5 mps 766 mmHg 75%
10:00 +13°C° 0 mm 4 mps 766 mmHg 70%
11:00 +15°C° 0 mm 4 mps 765 mmHg 65%
12:00 +17°C° 0 mm 4 mps 765 mmHg 60%
13:00 +18°C° 0 mm 4 mps 765 mmHg 60%
14:00 +18°C° 0 mm 4 mps 765 mmHg 59%
15:00 +19°C° 0 mm 4 mps 765 mmHg 58%
16:00 +19°C° 0 mm 3 mps 765 mmHg 62%
17:00 +19°C° 0 mm 3 mps 765 mmHg 65%
18:00 +18°C° 0 mm 3 mps 765 mmHg 69%
19:00 +17°C° 0 mm 2 mps 765 mmHg 73%
20:00 +15°C° 0 mm 2 mps 765 mmHg 77%
21:00 +13°C° 0 mm 1 mps 766 mmHg 81%
22:00 +12°C° 0 mm 1 mps 766 mmHg 83%
23:00 +12°C° 0 mm 1 mps 766 mmHg 84%

24 June, Thursday

Time Temperature Precipitation Wind Pressure Humidity
00:00 +11°C° 0 mm 1 mps 766 mmHg 85%
01:00 +11°C° 0 mm 1 mps 766 mmHg 86%
02:00 +10°C° 0 mm 1 mps 766 mmHg 86%
03:00 +10°C° 0 mm 1 mps 766 mmHg 87%
04:00 +10°C° 0 mm 1 mps 766 mmHg 84%
05:00 +11°C° 0 mm 1 mps 766 mmHg 81%
06:00 +12°C° 0 mm 1 mps 766 mmHg 78%
07:00 +14°C° 0 mm 1 mps 766 mmHg 75%
08:00 +15°C° 0 mm 1 mps 766 mmHg 72%
09:00 +17°C° 0 mm 2 mps 766 mmHg 69%
10:00 +18°C° 0 mm 2 mps 766 mmHg 68%
11:00 +19°C° 0 mm 2 mps 765 mmHg 66%
12:00 +20°C° 0 mm 3 mps 765 mmHg 64%
13:00 +20°C° 0 mm 3 mps 765 mmHg 66%
14:00 +20°C° 0 mm 4 mps 765 mmHg 67%
15:00 +20°C° 0 mm 4 mps 765 mmHg 69%
16:00 +19°C° 0 mm 4 mps 764 mmHg 73%
17:00 +19°C° 0 mm 4 mps 764 mmHg 77%
18:00 +18°C° 0 mm 4 mps 764 mmHg 82%
19:00 +17°C° 0 mm 4 mps 764 mmHg 86%
20:00 +16°C° 0 mm 3 mps 764 mmHg 90%
21:00 +14°C° 0 mm 3 mps 764 mmHg 94%
22:00 +14°C° 0 mm 3 mps 764 mmHg 94%
23:00 +14°C° 0 mm 3 mps 764 mmHg 94%
Show more